Regional Weather Roundup
Issued by NWS Charleston, SC

Current Version | Previous Version | Graphics & Text | Print | Product List | Glossary On
Versions: 1 2 3 4 5 6 7 8 9 10 11 12 13 14 15 16 17 18 19 20 21 22 23 24 25 26 27 28 29 30 31 32 33 34 35 36 37 38 39 40 41 42 43 44 45 46 47 48 49 50
761
ASUS42 KCHS 132326
RWRCHS

REGIONAL WEATHER ROUNDUP
NATIONAL WEATHER SERVICE CHARLESTON SC
600 PM EST WED DEC 13 2017

NOTE: "FAIR" INDICATES FEW OR NO CLOUDS BELOW 12,000 FEET WITH NO
SIGNIFICANT WEATHER AND/OR OBSTRUCTIONS TO VISIBILITY.

NOT ALL STATIONS ARE QUALITY CONTROLLED. USE DATA WITH CAUTION...
ESPECIALLY DEWPOINT OBSERVATIONS.

SCZ027-030-031-034>040-042>050-140000-
...SOUTHEAST SOUTH CAROLINA...

CITY           SKY/WX    TMP DP  RH WIND       PRES   REMARKS
N CHARLESTON   CLEAR     41  25  53 S9        29.96R
WATERFRONT PRK   N/A     47  31  53 SW7       29.81S
JOHNS ISLAND   FAIR      43  28  56 SW5       29.97R
PINOPOLIS        N/A     45  25  45 VRB3      29.86S
MONCKS CORNER  FAIR      41  23  48 SW5       29.94S
SUMMERVILLE    FAIR      41  27  56 CALM      29.95S
BEAUFORT MCAS  CLEAR     45  28  51 SW5       29.97S
BEAUFORT ARPT  FAIR      45  32  61 S5        29.97S
HILTON HEAD IS NOT AVBL
WALTERBORO     CLEAR     41  25  52 SW5       29.96S
ALLENDALE      FAIR      43  25  49 CALM      29.93F

...SOUTHERN MIDLANDS AND PEE DEE...

CITY           SKY/WX    TMP DP  RH WIND       PRES   REMARKS
GEORGETOWN     FAIR      37  27  65 S6        29.95R WCI  33
KINGSTREE      FAIR      36  27  69 CALM      29.93S
ORANGEBURG     CLEAR     41  21  44 SW8       29.93R
BARNWELL         N/A     45  23  42 CALM      29.92F
AIKEN          FAIR      41  19  42 S7        29.92F
MANNING        FAIR      43  23  45 MISG      29.93R
COLUMBIA       CLEAR     45  19  35 SW6       29.90F
SUMTER         CLEAR     41  18  40 SW9       29.89R
FLORENCE       CLEAR     43  20  39 SW9       29.90R
MYRTLE BEACH   PTCLDY    43  20  39 SW5       29.93F
N MYRTLE BEACH PTCLDY    43  20  39 SW5       29.91S

$$

GAZ063-065-086>088-099>101-113>116-118-119-134>141-150-140000-
...SOUTHEAST GEORGIA...

CITY           SKY/WX    TMP DP  RH WIND       PRES   REMARKS
SAVANNAH ARPT  CLEAR     45  25  45 S5        29.98S SMOKE
HUNTER AAF     CLEAR     46  30  55 S5        29.97
FORT STEWART   CLEAR     47  26  43 SW3         N/A
STATESBORO     CLEAR     42  25  50 S3        29.95F
SYLVANIA       CLEAR     43  29  57 CALM      29.96S
CLAXTON        FAIR      43  33  68 CALM      29.97F

...CSRA...CENTRAL AND FAR SOUTHEAST GEORGIA...

CITY           SKY/WX    TMP DP  RH WIND       PRES   REMARKS
THOMSON        CLEAR     38  23  54 W5        29.95F WCI  35
AUGUSTA-BUSH   CLEAR     41  21  44 S7        29.92F
AUGUSTA-DANIEL CLEAR     47  20  34 S6        29.91F
SWAINSBORO     FAIR      45  25  45 CALM      29.95F
VIDALIA        CLEAR     45  28  53 SW5       29.96F
EASTMAN        FAIR      44   9  24 SW3       29.99S
HAZLEHURST     FAIR      45  20  38 SW3       29.97S
ALMA           CLEAR     46  28  49 CALM      29.99F
WAYCROSS       CLEAR     47  26  43 SW3       30.00S
JESUP          FAIR      45  28  53 CALM      29.99F
BAXLEY         FAIR      43  27  52 CALM      29.98F
BRUNSWICK      CLEAR     43  32  65 CALM      30.00F
SAINT SIMONS   CLEAR     49  30  48 SW5       30.00F

$$

SCZ027-028-034-036>038-045-046-048>050-GAZ119-141-140000-
...LAKE AND SUPPLEMENTAL COASTAL OBSERVATIONS...

STATION/POSITION TIME  TEMP    WIND        PRES    WAVE   SWELL
                       AIR SEA DIR/SP/G            HT/PER HT/PER/DIR
                 (UTC) (F)     (DEG/KT/KT) (MB)    (FT/S) (FT/S/D)
WINYAH BAY       2245   45     220/  6     1013.0F
LAKE MURRAY      2230   48     220/ 11/ 18 1011.5F
ACE BASIN NERRS  2245   45     180/  1     1015.0R
FORT PULASKI     2300   47 54  220/  7/ 10 1015.4
SAPELO ISLAND    2300   51     230/  7     1016.0

$$

ANZ835-935-AMZ111-154-330-350-352-354-370-450-454-472-140000-
...C-MAN AND BUOY OBSERVATIONS...

STATION/POSITION TIME  TEMP    WIND        PRES    WAVE   SWELL
                       AIR SEA DIR/SP/G            HT/PER HT/PER/DIR
                 (UTC) (F)     (DEG/KT/KT) (MB)    (FT/S) (FT/S/D)
BUOY 41004       2300          210/ 12/ 17 1014.1
BUOY 41008       2250   51 60  190/ 12/ 14 1015.6F   1/ 9
FOLLY BEACH CMAN 2300   45     230/  7/  9 1015.0R
CAPERS NEARSHORE 2308   45 56  240/ 14/ 21 1013.8R
FRIPP NEARSHORE  2308   46 57  210/ 10/ 19 1014.2F


STATION/POSITION TIME  TEMP    WIND        PRES    WAVE   SWELL
                       AIR SEA DIR/SP/G            HT/PER HT/PER/DIR
                 (UTC) (F)     (DEG/KT/KT) (MB)    (FT/S) (FT/S/D)
5E ST. MARYS GA  2300      62                N/A     1/ 4
FRYING PAN BUOY  2300   48 62  250/  8/ 12 1013.1
BUOY 41025       2300   44 74  280/ 14/ 17 1012.5
CAPE LOOKOUT NC  2300          250/  4/  6 1012.7F
BUOY 41002       2250   58 75  270/ 12/ 16 1014.0R  11/10  10/330/10
BUOY 41010       NOT AVBL
ST AUGUSTINE FL  2300   54 63  230/  2/  2 1017.2F


$$




USA.gov is the U.S. government's official web portal to all federal, state and local government web resources and services.